Flag for Uzbekistan Weather past 2 weeks in Tashkent, Uzbekistan

Now
90 °F

Passing clouds.


Feels Like: 86 °F
Forecast: 76 / 100 °F
Wind: 3 mph from Southwest

Location: Tashkent

Current Time: Aug 23, 2014 at 11:36:56 AM

Latest Report: Aug 23, 2014 at 10:30 AM


Visibility: N/A

Pressure: 29.74 "Hg

Humidity: 21%

Dew point: 45 °F

Location of TashkentLocation

Historic Weather in Tashkent — Graph

°F

Tashkent temperature yesterday

Maximum temperature yesterday: 104 °F (at 4:30 PM)
Minimum temperature yesterday: 70 °F (at 3:30 AM)
Average temperature yesterday: 87 °F

Past Weeks' High & Low Weather Summary

 TemperatureHumidityPressure
High104 °F (Aug 22, 4:30 PM)64% (Aug 16, 6:00 AM)29.98 "Hg (Aug 16, 6:00 AM)
Low63 °F (Aug 16, 6:00 AM)6% (Aug 19, 3:30 PM)29.62 "Hg (Aug 22, 5:30 PM)
Average83 °F28%29.78 "Hg
* Reported Aug 8 10:00 AM — Aug 23 10:00 AM, Tashkent, Weather by CustomWeather, © 2014

Note: Actual official high and low records may vary slightly from our data, if they occured in-between our weather recording intervals... More about our weather records

Advertising

Tashkent weather history for previous 24 hours

 ConditionsComfort  
Time TempWeatherWind HumidityBarometerVisibility
10:00 AM
Aug 23
90 °FPassing clouds.3 mph20%29.74 "HgN/A
9:30 AM88 °FPassing clouds.3 mph22%29.74 "HgN/A
9:00 AM86 °FPassing clouds.3 mph24%29.74 "HgN/A
8:30 AM82 °FPassing clouds.6 mph26%29.74 "HgN/A
8:00 AM82 °FSunny.1 mph26%29.74 "Hg10 mi
7:30 AM81 °FSunny.1 mph28%29.74 "Hg10 mi
7:00 AM75 °FSunny.1 mph36%29.71 "Hg10 mi
6:30 AM73 °FSunny.1 mph36%29.71 "Hg10 mi
5:30 AM72 °FClear.6 mph38%29.71 "Hg10 mi
5:00 AM73 °FClear.6 mph36%29.68 "Hg10 mi
4:30 AM72 °FClear.3 mph41%29.68 "Hg10 mi
4:00 AM75 °FClear.3 mph34%29.68 "Hg10 mi
3:30 AM73 °FClear.3 mph36%29.68 "Hg10 mi
3:00 AM72 °FClear.6 mph41%29.68 "Hg10 mi
2:30 AM73 °FClear.6 mph41%29.65 "Hg10 mi
2:00 AM73 °FClear.6 mph41%29.65 "Hg10 mi
1:30 AM73 °FClear.6 mph44%29.65 "Hg10 mi
1:00 AM75 °FClear.6 mph44%29.68 "Hg10 mi
12:30 AM75 °FClear.6 mph50%29.68 "Hg10 mi
12:00 AM77 °FClear.6 mph47%29.68 "Hg10 mi
11:30 PM
Aug 22
77 °FClear.6 mph47%29.65 "Hg10 mi
11:00 PM79 °FClear.6 mph45%29.65 "Hg10 mi
10:30 PM82 °FClear.3 mph32%29.65 "Hg10 mi
10:00 PM84 °FClear.3 mph27%29.65 "Hg10 mi
9:30 PM88 °FPassing clouds.3 mph13%29.68 "HgN/A
9:00 PM91 °FClear.6 mph12%29.68 "Hg10 mi
8:30 PM91 °FClear.3 mph12%29.65 "Hg10 mi
8:00 PM93 °FClear.8 mph12%29.65 "Hg10 mi
7:30 PM95 °FClear.6 mph11%29.65 "Hg10 mi
7:00 PM97 °FSunny.8 mph12%29.65 "Hg10 mi
6:30 PM99 °FSunny.6 mph11%29.65 "Hg10 mi
6:00 PM102 °FSunny.6 mph9%29.62 "Hg10 mi
5:30 PM102 °FSunny.8 mph9%29.62 "Hg10 mi
5:00 PM102 °FPassing clouds.6 mph9%29.65 "HgN/A
4:30 PM104 °FPassing clouds.6 mph9%29.65 "HgN/A
4:00 PM102 °FPassing clouds.6 mph10%29.65 "HgN/A
3:30 PM102 °FPassing clouds.6 mph10%29.65 "HgN/A
3:00 PM100 °FPassing clouds.6 mph12%29.65 "HgN/A
2:30 PM100 °FPassing clouds.8 mph15%29.65 "HgN/A
2:00 PM99 °FPassing clouds.6 mph16%29.65 "HgN/A
1:30 PM99 °FPassing clouds.6 mph18%29.68 "HgN/A
1:00 PM97 °FSunny.3 mph19%29.68 "Hg10 mi
12:30 PM95 °FSunny.3 mph20%29.68 "Hg10 mi
12:00 PM95 °FPassing clouds.6 mph19%29.68 "HgN/A
11:30 AM93 °FPassing clouds.6 mph17%29.68 "HgN/A
11:00 AM93 °FClear.6 mph19%29.68 "Hg4 mi
Weather by CustomWeather, © 2014

See weather overviewHow to use our weather pages